Location: Ariel
(45.9570°N, 122.5700°W)
Time: 00:04:10
(UTC-07:00)

Altair - Pass Details

Date: 28 July 2019
Orbit: 1501 x 1683 km, 47.2° (Epoch: 25 August)

Event Time Altitude Azimuth Distance (km) Brightness Sun altitude
Rises 10:24:03 0° 217° (SW) 4,693 9.9 45.4°
Reaches altitude 10° 10:27:16 10° 212° (SSW) 3,692 9.6 46.0°
Maximum altitude 10:35:56 46° 142° (SE) 1,930 9.9 47.3°
Drops below altitude 10° 10:44:29 10° 73° (ENE) 3,656 10.1 48.7°
Sets 10:47:39 0° 68° (ENE) 4,643 10.4 49.1°
